Weather History for K0J4 - January, 2013

Change the Weather History Date:

Saturday, January 5, 2013

  Actual Average (KCEW) Record (KCEW)
Temperature  
Mean Temperature 44 °F -  
Max Temperature 53 °F 61 °F 78 °F (2004)
Min Temperature 35 °F 38 °F 16 °F (1999)
Degree Days  
Heating Degree Days 21    
Moisture  
Dew Point 34 °F    
Average Humidity 64    
Maximum Humidity 89    
Minimum Humidity 43    
Precipitation  
Precipitation 0.00 in - - ()
Sea Level Pressure  
Sea Level Pressure 30.33 in    
Wind  
Wind Speed 3 mph (ENE)    
Max Wind Speed 7 mph    
Max Gust Speed -    
Averages and records for this station are not official NWS values.
T = Trace of Precipitation, MM = Missing Value Source: NWS Daily Summary

Daily Weather History Graph

Daily Weather History Graph

Search for Another Location

Airport or City:

Trip Planner

Search our weather history database for the weather conditions in past years. The results will help you decide how hot, cold, wet, or windy it might be!

Date:

Astronomy

Jan. 05, 2013 Rise Set
Actual Time 6:44 AM CST 4:57 PM CST
Civil Twilight 6:17 AM CST 5:24 PM CST
Nautical Twilight 5:47 AM CST 5:54 PM CST
Astronomical Twilight 5:18 AM CST 6:23 PM CST
Moon 12:03 AM CST (1/5) 11:35 AM CST (1/5)
Length of Visible Light 11h 06m
Length of Day
10h 13m
Last Quarter, 44% of the Moon is Illuminated
Jan 5
Last Quarter
Jan 11
New
Jan 18
First Quarter
Jan 26
Full
Feb 3
Last Quarter

Hourly Weather History & Observations

Time (CST) Temp. Windchill Dew Point Humidity Pressure Visibility Wind Dir Wind Speed Gust Speed Precip Events Conditions
12:58 AM 37.9 °F - 33.1 °F 83% 30.35 in - Calm Calm - N/A   Clear
1:58 AM 37.0 °F - 33.1 °F 86% 30.35 in - Calm Calm - N/A   Clear
2:58 AM 35.1 °F 30.1 °F 32.0 °F 89% 30.36 in - North 5.8 mph - N/A   Clear
3:58 AM 37.0 °F - 32.0 °F 82% 30.36 in - Calm Calm - N/A   Clear
4:58 AM 36.0 °F 32.1 °F 32.0 °F 86% 30.35 in - NNE 4.6 mph - N/A   Clear
5:58 AM 37.0 °F 34.5 °F 30.0 °F 76% 30.36 in - NE 3.5 mph - N/A   Clear
6:58 AM 37.9 °F 33.5 °F 30.0 °F 73% 30.38 in - NNE 5.8 mph - N/A   Clear
7:58 AM 43.0 °F 38.8 °F 30.0 °F 60% 30.38 in - ENE 6.9 mph - N/A   Clear
8:58 AM 46.0 °F 43.9 °F 28.9 °F 51% 30.40 in - East 4.6 mph - N/A   Clear
9:58 AM 48.9 °F - 30.0 °F 48% 30.38 in - ENE 5.8 mph - N/A   Clear
10:58 AM 51.1 °F - 28.9 °F 43% 30.38 in - ENE 3.5 mph - N/A   Clear
11:58 AM 52.0 °F - 30.0 °F 43% 30.33 in - ENE 4.6 mph - N/A   Clear
12:58 PM 52.0 °F - 30.9 °F 45% 30.30 in - NE 4.6 mph - 0.00 in   Partly Cloudy
1:58 PM 53.1 °F - 33.1 °F 47% 30.28 in - East 6.9 mph - N/A   Clear
2:58 PM 53.1 °F - 34.0 °F 48% 30.30 in - ENE 3.5 mph - N/A   Clear
3:58 PM 51.1 °F - 37.0 °F 59% 30.32 in - SE 3.5 mph - N/A   Clear
4:58 PM 50.0 °F - 39.0 °F 66% 30.32 in - Calm Calm - N/A   Scattered Clouds
5:58 PM 50.0 °F - 39.9 °F 68% 30.33 in - Calm Calm - N/A   Overcast
6:58 PM 50.0 °F - 39.0 °F 66% 30.34 in - Calm Calm - N/A   Overcast
7:58 PM 50.0 °F - 37.9 °F 63% 30.31 in - East 4.6 mph - N/A   Overcast
8:58 PM 50.0 °F - 37.9 °F 63% 30.31 in - Calm Calm - N/A   Overcast
9:58 PM 48.9 °F - 39.0 °F 69% 30.28 in - Calm Calm - N/A   Overcast
10:58 PM 50.0 °F - 36.0 °F 59% 30.27 in - Calm Calm - N/A   Overcast
11:58 PM 48.9 °F - 37.0 °F 64% 30.25 in - Calm Calm - N/A   Overcast